DELTA 1 DEB, 21549

Orbit data source: Space-Track

DELTA 1 DEB, 21549 is space debris in SSO originally from a launch on Thu, 12 Jun 1975 UTC launched from the Air Force Western Test Range (AFWTR). Debris objects in space refer to the collection of defunct objects orbiting the Earth. Examples of debris include non-operational satellites, rocket bodies, and fragments generated from explosions, collisions, or faulty payload assembly.

Loading next visibility...
Identifier
21549, 1975-052HD
Orbit
SSO
Country
Flag of USUS
Related business
Manufacturer
Unknown
Mission
Spacecraft
Bus & Motor
Unknown
Mass
Unknown
Launch date (UTC)
1975-06-12 (51 years ago)
Launch vehicle
Unknown
Launch site
Air Force Western Test Range (AFWTR)
Object type
Payload
Rocket body
Debris
Shape & HBR
Unknown shape, 1.1 m
Radar Cross Section
Medium (>0.1 m² and <1 m²)

Expand to show TLE details & history
Last TLE update: 2 days ago

TLE from 2 days ago
0 DELTA 1 DEB
1 21549U 75052HD  26171.41945940  .00000215  00000-0  67302-3 0  9992
2 21549  99.7824 158.0446 0199233 239.4851 278.9680 13.09483282673645
Epoch: 2026-06-20T10:04Z
TLE epoch observation values (Epoch: 2026-06-20T10:04:01.292Z)
Latitude
23.46424°
Longitude
-77.32488°
Altitude
1,207.178 km
Speed
7.262 km/s
True Right ascension
22h 49m 15s
True Declination
23° 20' 47"
Sunlit
Object was in daylight at epoch
Visualization orbit readout
Latitude
Unknown
Longitude
Unknown
Altitude
Unknown
Speed
Unknown
Apparent Right ascension
Unknown
Apparent Declination
Unknown
Sunlit
N/A
Visualization observer readout
Local Sidereal Time
17:35:32
Azimuth
Unknown
Elevation
Unknown
Doppler factor
Unknown
Orbital elements
Apogee altitude
1,373.947 km
Perigee altitude
1,071.087 km
Semi-major axis
7,600.654 km
Eccentricity
0.01992
Inclination
99.7824°
RAAN
158.0446°
Arg. of periapsis
239.4851°
True anomaly
276.70467°
Mean anomaly
278.968°
Eccentric anomaly
277.83714°
Mean motion
3.27542 °/min
Orbital period
109.91 mins
BSTAR
0.00067302
Loading maneuver chart data...
Computing Atmospheric mass density...
Loading historical data...
Loading historical data...
Loading historical data...
Loading historical data...
Loading historical data...
Loading historical data...
Loading historical data...

Documentation

Showing up to 5 results
|